| time (UTC) | temp C | wind direction | speed KPH | gust KPH | rain 1hr cm | rain 24hr cm | rain mn cm | humidity % | barometer mb |
| 20260503235905 | 17 | 209 | 1.6 | 12.9 | 0.00 | 0.00 | 0.00 | 40 | 1012.0 |
| 20260503235404 | 18 | 224 | 1.6 | 9.7 | 0.00 | 0.00 | 0.00 | 41 | 1012.2 |
| 20260503234404 | 18 | 208 | 1.6 | 9.7 | 0.00 | 0.00 | 0.00 | 41 | 1011.9 |
| 20260503233904 | 18 | 209 | 1.6 | 12.9 | 0.00 | 0.00 | 0.00 | 40 | 1011.9 |
| 20260503233404 | 18 | 185 | 4.8 | 12.9 | 0.00 | 0.00 | 0.00 | 40 | 1012.3 |
| 20260503232904 | 18 | 209 | 1.6 | 9.7 | 0.00 | 0.00 | 0.00 | 40 | 1012.3 |
| 20260503232405 | 18 | 241 | 0.0 | 4.8 | 0.00 | 0.00 | 0.00 | 40 | 1012.5 |
| 20260503231904 | 17 | 188 | 4.8 | 14.5 | 0.00 | 0.00 | 0.00 | 40 | 1012.4 |
| 20260503231405 | 17 | 274 | 0.0 | 9.7 | 0.00 | 0.00 | 0.00 | 40 | 1012.4 |
| 20260503230904 | 18 | 209 | 1.6 | 9.7 | 0.00 | 0.00 | 0.00 | 40 | 1012.5 |
| 20260503230404 | 18 | 201 | 0.0 | 4.8 | 0.00 | 0.00 | 0.00 | 39 | 1012.7 |
| 20260503225404 | 18 | 208 | 0.0 | 12.9 | 0.00 | 0.00 | 0.00 | 39 | 1012.9 |
| 20260503224904 | 18 | 215 | 1.6 | 14.5 | 0.00 | 0.00 | 0.00 | 38 | 1012.9 |
| 20260503224404 | 18 | 328 | 1.6 | 11.3 | 0.00 | 0.00 | 0.00 | 38 | 1012.8 |
| 20260503223904 | 19 | 291 | 4.8 | 11.3 | 0.00 | 0.00 | 0.00 | 38 | 1012.8 |
| 20260503223404 | 19 | 201 | 1.6 | 16.1 | 0.00 | 0.00 | 0.00 | 38 | 1012.8 |
| 20260503222904 | 19 | 205 | 1.6 | 12.9 | 0.00 | 0.00 | 0.00 | 38 | 1012.9 |
| 20260503221404 | 19 | 211 | 4.8 | 16.1 | 0.00 | 0.00 | 0.00 | 39 | 1013.1 |
| 20260503220904 | 19 | 282 | 1.6 | 8.0 | 0.00 | 0.00 | 0.00 | 39 | 1013.1 |
| 20260503220404 | 19 | 192 | 1.6 | 9.7 | 0.00 | 0.00 | 0.00 | 38 | 1013.2 |
| 20260503215904 | 19 | 263 | 1.6 | 9.7 | 0.00 | 0.00 | 0.00 | 38 | 1013.2 |
| 20260503215404 | 19 | 189 | 1.6 | 11.3 | 0.00 | 0.00 | 0.00 | 38 | 1013.4 |
| 20260503214904 | 19 | 287 | 3.2 | 19.3 | 0.00 | 0.00 | 0.00 | 39 | 1013.5 |
| 20260503214403 | 19 | 298 | 3.2 | 20.9 | 0.00 | 0.00 | 0.00 | 39 | 1013.2 |
| 20260503213904 | 19 | 195 | 1.6 | 4.8 | 0.00 | 0.00 | 0.00 | 38 | 1013.3 |
| 20260503213404 | 19 | 186 | 3.2 | 19.3 | 0.00 | 0.00 | 0.00 | 38 | 1013.4 |
| 20260503212904 | 19 | 274 | 0.0 | 14.5 | 0.00 | 0.00 | 0.00 | 39 | 1013.1 |
| 20260503212404 | 19 | 203 | 1.6 | 22.5 | 0.00 | 0.00 | 0.00 | 38 | 1013.3 |
| 20260503211904 | 19 | 185 | 8.0 | 19.3 | 0.00 | 0.00 | 0.00 | 38 | 1013.6 |
| 20260503211404 | 19 | 306 | 4.8 | 19.3 | 0.00 | 0.00 | 0.00 | 38 | 1013.4 |
| 20260503210904 | 19 | 70 | 3.2 | 11.3 | 0.00 | 0.00 | 0.00 | 39 | 1013.6 |
| 20260503210404 | 19 | 176 | 3.2 | 19.3 | 0.00 | 0.00 | 0.00 | 39 | 1013.8 |
| 20260503205904 | 19 | 295 | 1.6 | 16.1 | 0.00 | 0.00 | 0.00 | 39 | 1013.7 |
| 20260503205404 | 19 | 221 | 1.6 | 14.5 | 0.00 | 0.00 | 0.00 | 39 | 1013.6 |
| 20260503204904 | 20 | 203 | 3.2 | 14.5 | 0.00 | 0.00 | 0.00 | 39 | 1013.7 |
| 20260503203904 | 20 | 220 | 3.2 | 14.5 | 0.00 | 0.00 | 0.00 | 39 | 1014.0 |
| 20260503202904 | 19 | 199 | 8.0 | 24.1 | 0.00 | 0.00 | 0.00 | 39 | 1013.8 |
| 20260503202404 | 19 | 270 | 1.6 | 9.7 | 0.00 | 0.00 | 0.00 | 39 | 1014.1 |
| 20260503201904 | 20 | 269 | 0.0 | 11.3 | 0.00 | 0.00 | 0.00 | 39 | 1014.5 |
| 20260503201403 | 20 | 240 | 0.0 | 11.3 | 0.00 | 0.00 | 0.00 | 40 | 1014.5 |
| 20260503200904 | 20 | 219 | 1.6 | 19.3 | 0.00 | 0.00 | 0.00 | 40 | 1014.6 |
| 20260503200404 | 20 | 188 | 1.6 | 8.0 | 0.00 | 0.00 | 0.00 | 40 | 1014.7 |
| 20260503195904 | 20 | 284 | 3.2 | 20.9 | 0.00 | 0.00 | 0.00 | 40 | 1014.9 |
| 20260503194903 | 20 | 240 | 3.2 | 16.1 | 0.00 | 0.00 | 0.00 | 39 | 1015.0 |
| 20260503194403 | 20 | 241 | 3.2 | 14.5 | 0.00 | 0.00 | 0.00 | 40 | 1015.1 |
| 20260503193904 | 20 | 189 | 4.8 | 16.1 | 0.00 | 0.00 | 0.00 | 40 | 1015.1 |
| 20260503193404 | 20 | 186 | 6.4 | 12.9 | 0.00 | 0.00 | 0.00 | 40 | 1015.2 |
| 20260503192904 | 20 | 260 | 3.2 | 16.1 | 0.00 | 0.00 | 0.00 | 41 | 1015.4 |
| 20260503191904 | 20 | 183 | 8.0 | 27.4 | 0.00 | 0.00 | 0.00 | 41 | 1015.6 |
| 20260503191403 | 20 | 193 | 8.0 | 20.9 | 0.00 | 0.00 | 0.00 | 42 | 1015.5 |
| 20260503190904 | 20 | 195 | 1.6 | 9.7 | 0.00 | 0.00 | 0.00 | 42 | 1015.6 |
| 20260503185903 | 19 | 195 | 3.2 | 12.9 | 0.00 | 0.00 | 0.00 | 41 | 1015.8 |
| 20260503185404 | 19 | 306 | 6.4 | 16.1 | 0.00 | 0.00 | 0.00 | 41 | 1015.8 |
| 20260503184904 | 19 | 266 | 1.6 | 14.5 | 0.00 | 0.00 | 0.00 | 42 | 1015.9 |
| 20260503183903 | 18 | 180 | 6.4 | 19.3 | 0.00 | 0.00 | 0.00 | 41 | 1016.2 |
| 20260503182904 | 18 | 193 | 1.6 | 9.7 | 0.00 | 0.00 | 0.00 | 41 | 1016.2 |
| 20260503182403 | 19 | 186 | 1.6 | 16.1 | 0.00 | 0.00 | 0.00 | 41 | 1016.3 |
| 20260503181904 | 19 | 250 | 1.6 | 14.5 | 0.00 | 0.00 | 0.00 | 42 | 1016.2 |
| 20260503181404 | 19 | 211 | 3.2 | 11.3 | 0.00 | 0.00 | 0.00 | 42 | 1016.3 |
| 20260503180904 | 19 | 171 | 4.8 | 25.7 | 0.00 | 0.00 | 0.00 | 43 | 1016.3 |
| 20260503180403 | 18 | 169 | 8.0 | 19.3 | 0.00 | 0.00 | 0.00 | 42 | 1016.4 |
| 20260503175904 | 18 | 169 | 9.7 | 19.3 | 0.00 | 0.00 | 0.00 | 42 | 1016.7 |
| 20260503175403 | 18 | 246 | 1.6 | 9.7 | 0.00 | 0.00 | 0.00 | 42 | 1016.6 |
| 20260503173903 | 19 | 184 | 6.4 | 19.3 | 0.00 | 0.00 | 0.00 | 43 | 1016.9 |
| 20260503173403 | 19 | 196 | 1.6 | 19.3 | 0.00 | 0.00 | 0.00 | 43 | 1017.1 |
| 20260503172904 | 19 | 208 | 4.8 | 19.3 | 0.00 | 0.00 | 0.00 | 43 | 1017.0 |
| 20260503172403 | 18 | 227 | 4.8 | 14.5 | 0.00 | 0.00 | 0.00 | 44 | 1017.3 |
| 20260503171903 | 18 | 156 | 3.2 | 8.0 | 0.00 | 0.00 | 0.00 | 43 | 1017.4 |
| 20260503171403 | 18 | 261 | 4.8 | 16.1 | 0.00 | 0.00 | 0.00 | 44 | 1017.6 |
| 20260503170903 | 18 | 168 | 4.8 | 12.9 | 0.00 | 0.00 | 0.00 | 43 | 1017.5 |
| 20260503150405 | 18 | 298 | 4.8 | 19.3 | 0.00 | 0.00 | 0.00 | 57 | 1018.9 |
| 20260503131405 | 8 | 197 | 1.6 | 12.9 | 0.00 | 0.00 | 0.00 | 83 | 1019.9 |
| 20260503130906 | 8 | 203 | 1.6 | 8.0 | 0.00 | 0.00 | 0.00 | 83 | 1020.1 |
| 20260503130406 | 7 | 191 | 1.6 | 8.0 | 0.00 | 0.00 | 0.00 | 83 | 1020.2 |
| 20260503090405 | 0 | 317 | 0.0 | 0.0 | 0.00 | 0.00 | 0.00 | 78 | 1020.0 |
| 20260503081405 | 1 | 317 | 0.0 | 0.0 | 0.00 | 0.00 | 0.00 | 76 | 1019.8 |
| 20260503080905 | 1 | 317 | 0.0 | 0.0 | 0.00 | 0.00 | 0.00 | 76 | 1019.5 |
| 20260503072905 | 1 | 317 | 0.0 | 0.0 | 0.00 | 0.00 | 0.00 | 75 | 1019.3 |
| 20260503072405 | 1 | 317 | 0.0 | 0.0 | 0.00 | 0.00 | 0.00 | 75 | 1019.5 |
| 20260503071906 | 1 | 317 | 0.0 | 0.0 | 0.00 | 0.00 | 0.00 | 75 | 1019.5 |
| 20260503071405 | 1 | 317 | 0.0 | 0.0 | 0.00 | 0.00 | 0.00 | 74 | 1019.5 |
| 20260503070905 | 1 | 317 | 0.0 | 0.0 | 0.00 | 0.00 | 0.00 | 74 | 1019.5 |
| 20260503070405 | 1 | 317 | 0.0 | 0.0 | 0.00 | 0.00 | 0.00 | 74 | 1019.3 |
| 20260503054905 | 2 | 317 | 0.0 | 0.0 | 0.00 | 0.00 | 0.00 | 71 | 1019.6 |
| 20260503054404 | 2 | 317 | 0.0 | 0.0 | 0.00 | 0.00 | 0.00 | 71 | 1019.5 |
| 20260503053904 | 2 | 317 | 0.0 | 0.0 | 0.00 | 0.00 | 0.00 | 71 | 1019.5 |
| 20260503053405 | 2 | 317 | 0.0 | 0.0 | 0.00 | 0.00 | 0.00 | 71 | 1019.5 |
| 20260503052905 | 2 | 317 | 0.0 | 0.0 | 0.00 | 0.00 | 0.00 | 71 | 1019.6 |
| 20260503052405 | 2 | 317 | 0.0 | 0.0 | 0.00 | 0.00 | 0.00 | 70 | 1019.4 |
| 20260503051905 | 2 | 317 | 0.0 | 0.0 | 0.00 | 0.00 | 0.00 | 70 | 1019.4 |
| 20260503051406 | 2 | 317 | 0.0 | 0.0 | 0.00 | 0.00 | 0.00 | 70 | 1019.7 |
| 20260503050905 | 2 | 317 | 0.0 | 0.0 | 0.00 | 0.00 | 0.00 | 70 | 1019.5 |
| 20260503050405 | 3 | 317 | 0.0 | 0.0 | 0.00 | 0.00 | 0.00 | 69 | 1019.5 |
| 20260503045904 | 3 | 317 | 0.0 | 0.0 | 0.00 | 0.00 | 0.00 | 69 | 1019.6 |
| 20260503045405 | 3 | 317 | 0.0 | 0.0 | 0.00 | 0.00 | 0.00 | 69 | 1019.8 |
| 20260503044905 | 3 | 317 | 0.0 | 0.0 | 0.00 | 0.00 | 0.00 | 69 | 1019.5 |
| 20260503044405 | 3 | 317 | 0.0 | 0.0 | 0.00 | 0.00 | 0.00 | 68 | 1019.3 |
| 20260503043904 | 3 | 317 | 0.0 | 0.0 | 0.00 | 0.00 | 0.00 | 68 | 1019.4 |
| 20260503042905 | 3 | 317 | 0.0 | 0.0 | 0.00 | 0.00 | 0.00 | 68 | 1019.2 |
| 20260503042405 | 3 | 317 | 0.0 | 0.0 | 0.00 | 0.00 | 0.00 | 68 | 1019.3 |
| 20260503041404 | 4 | 317 | 0.0 | 0.0 | 0.00 | 0.00 | 0.00 | 67 | 1019.1 |
| 20260503040904 | 4 | 317 | 0.0 | 0.0 | 0.00 | 0.00 | 0.00 | 67 | 1019.1 |
| 20260503040404 | 4 | 317 | 0.0 | 0.0 | 0.00 | 0.00 | 0.00 | 67 | 1019.1 |
| 20260503035905 | 5 | 317 | 0.0 | 0.0 | 0.00 | 0.00 | 0.00 | 66 | 1018.8 |
| 20260503035405 | 5 | 317 | 0.0 | 0.0 | 0.00 | 0.00 | 0.00 | 66 | 1018.9 |
| 20260503034905 | 5 | 317 | 0.0 | 0.0 | 0.00 | 0.00 | 0.00 | 66 | 1019.0 |
| 20260503034405 | 5 | 319 | 0.0 | 0.0 | 0.00 | 0.00 | 0.00 | 66 | 1018.9 |
| 20260503033905 | 5 | 320 | 0.0 | 0.0 | 0.00 | 0.00 | 0.00 | 66 | 1018.8 |
| 20260503033405 | 5 | 320 | 0.0 | 0.0 | 0.00 | 0.00 | 0.00 | 67 | 1018.7 |
| 20260503032905 | 5 | 320 | 0.0 | 0.0 | 0.00 | 0.00 | 0.00 | 67 | 1018.8 |
| 20260503032404 | 5 | 320 | 0.0 | 1.6 | 0.00 | 0.00 | 0.00 | 67 | 1018.8 |
| 20260503031905 | 5 | 320 | 0.0 | 0.0 | 0.00 | 0.00 | 0.00 | 67 | 1018.7 |
| 20260503031405 | 5 | 320 | 0.0 | 0.0 | 0.00 | 0.00 | 0.00 | 66 | 1018.7 |
| 20260503030905 | 5 | 320 | 0.0 | 0.0 | 0.00 | 0.00 | 0.00 | 66 | 1018.7 |
| 20260503030404 | 5 | 320 | 0.0 | 0.0 | 0.00 | 0.00 | 0.00 | 66 | 1019.0 |
| 20260503025905 | 5 | 320 | 0.0 | 0.0 | 0.00 | 0.00 | 0.00 | 66 | 1018.8 |
| 20260503025405 | 5 | 320 | 0.0 | 0.0 | 0.00 | 0.00 | 0.00 | 65 | 1018.8 |
| 20260503024904 | 5 | 320 | 0.0 | 0.0 | 0.00 | 0.00 | 0.00 | 65 | 1018.8 |
| 20260503024404 | 5 | 320 | 0.0 | 0.0 | 0.00 | 0.00 | 0.00 | 64 | 1018.4 |
| 20260503023904 | 5 | 320 | 0.0 | 0.0 | 0.00 | 0.00 | 0.00 | 64 | 1018.7 |
| 20260503023405 | 5 | 320 | 0.0 | 0.0 | 0.00 | 0.00 | 0.00 | 63 | 1018.4 |
| 20260503022905 | 5 | 320 | 0.0 | 0.0 | 0.00 | 0.00 | 0.00 | 63 | 1018.5 |
| 20260503022404 | 6 | 320 | 0.0 | 0.0 | 0.00 | 0.00 | 0.00 | 63 | 1018.2 |
| 20260503021905 | 6 | 320 | 0.0 | 0.0 | 0.00 | 0.00 | 0.00 | 62 | 1018.4 |
| 20260503021404 | 6 | 320 | 0.0 | 0.0 | 0.00 | 0.00 | 0.00 | 62 | 1018.1 |
| 20260503020905 | 6 | 320 | 0.0 | 0.0 | 0.00 | 0.00 | 0.00 | 62 | 1017.9 |
| 20260503020405 | 6 | 320 | 0.0 | 0.0 | 0.00 | 0.00 | 0.00 | 61 | 1018.0 |
| 20260503015905 | 6 | 320 | 0.0 | 0.0 | 0.00 | 0.00 | 0.00 | 61 | 1017.6 |
| 20260503015404 | 6 | 320 | 0.0 | 0.0 | 0.00 | 0.00 | 0.00 | 60 | 1017.6 |
| 20260503014405 | 7 | 320 | 0.0 | 0.0 | 0.00 | 0.00 | 0.00 | 60 | 1017.4 |
| 20260503013904 | 7 | 320 | 0.0 | 0.0 | 0.00 | 0.00 | 0.00 | 59 | 1017.2 |
| 20260503013405 | 7 | 320 | 0.0 | 0.0 | 0.00 | 0.00 | 0.00 | 59 | 1017.2 |
| 20260503012905 | 8 | 320 | 0.0 | 0.0 | 0.00 | 0.00 | 0.00 | 59 | 1017.4 |
| 20260503012404 | 8 | 320 | 0.0 | 0.0 | 0.00 | 0.00 | 0.00 | 59 | 1017.4 |
| 20260503011904 | 8 | 320 | 0.0 | 1.6 | 0.00 | 0.00 | 0.00 | 59 | 1017.1 |
| 20260503011404 | 8 | 320 | 0.0 | 1.6 | 0.00 | 0.00 | 0.00 | 59 | 1017.0 |
| 20260503010904 | 8 | 320 | 0.0 | 4.8 | 0.00 | 0.00 | 0.00 | 58 | 1017.0 |
| 20260503010404 | 8 | 279 | 4.8 | 11.3 | 0.00 | 0.00 | 0.00 | 58 | 1016.6 |
| 20260503005405 | 9 | 312 | 0.0 | 0.0 | 0.00 | 0.00 | 0.00 | 57 | 1016.6 |
| 20260503004404 | 10 | 312 | 0.0 | 0.0 | 0.00 | 0.00 | 0.00 | 55 | 1016.5 |
| 20260503003904 | 10 | 312 | 0.0 | 0.0 | 0.00 | 0.00 | 0.00 | 55 | 1016.6 |
| 20260503003404 | 10 | 312 | 0.0 | 0.0 | 0.00 | 0.00 | 0.00 | 54 | 1016.2 |
| 20260503002904 | 10 | 312 | 0.0 | 0.0 | 0.00 | 0.00 | 0.00 | 53 | 1016.3 |
| 20260503001905 | 11 | 312 | 0.0 | 1.6 | 0.00 | 0.00 | 0.00 | 52 | 1015.8 |
| 20260503001405 | 11 | 299 | 1.6 | 8.0 | 0.00 | 0.00 | 0.00 | 52 | 1016.0 |
| 20260503000904 | 11 | 312 | 1.6 | 4.8 | 0.00 | 0.00 | 0.00 | 52 | 1015.9 |